Terug naar catalogus

CHANDRAYAAN 2

unknownWetenschapLLO
NORAD 44441·PAYLOAD·🇮🇳 India

Gelanceerd Jul 22, 2019 vanaf Satish Dhawan Space Centre

Loading…

TLE

VerouderdSource: Space-Track

Epoch: Aug 18, 2019, 00:00 UTC

1 44441U 19042A   19230.00000000 -.00330169  19998-2  00000+0 0  9998
2 44441  21.8130  14.8810 9751339 184.2250 135.4150  0.09137592   246

Volg CHANDRAYAAN 2 in realtime met AllMySat

Download on the App Store